When you browse on this site, cookies collect data to enhance your experience and personalize the content and advertising you see.
Visit our Privacy Policy to learn more. By continuing to use the site, you agree to this use of cookies and data.
  • In Hungary
  • List of Countries
  • For 7 days
  • Water Temperature
  • Satellite Maps
  • Weather Map
  • News
  • Weather Widgets
  • user-avatar
    Login

    Hourly Weather Haskovo

    Today, 26 April, Friday

    Time Temperature Precipitation Wind Pressure Humidity
    00:00 +14°C° 0 mm 1 mps 745 mmHg 87%
    01:00 +13°C° 0 mm 1 mps 745 mmHg 89%
    02:00 +13°C° 0 mm 1 mps 745 mmHg 91%
    03:00 +12°C° 0 mm 1 mps 745 mmHg 92%
    04:00 +11°C° 0 mm 0 mps 744 mmHg 92%
    05:00 +10°C° 0 mm 0 mps 744 mmHg 92%
    06:00 +12°C° 0 mm 0 mps 744 mmHg 88%
    07:00 +13°C° 0 mm 0 mps 745 mmHg 83%
    08:00 +15°C° 0 mm 0 mps 745 mmHg 78%
    09:00 +17°C° 0 mm 0 mps 745 mmHg 72%
    10:00 +21°C° 0 mm 1 mps 745 mmHg 67%
    11:00 +23°C° 0 mm 1 mps 744 mmHg 61%
    12:00 +24°C° 0 mm 1 mps 744 mmHg 58%
    13:00 +24°C° 0 mm 1 mps 744 mmHg 55%
    14:00 +25°C° 0 mm 2 mps 744 mmHg 51%
    15:00 +25°C° 0 mm 2 mps 743 mmHg 53%
    16:00 +25°C° 0 mm 2 mps 743 mmHg 54%
    17:00 +25°C° 0 mm 2 mps 742 mmHg 55%
    18:00 +23°C° 0 mm 2 mps 742 mmHg 62%
    19:00 +20°C° 0 mm 2 mps 742 mmHg 68%
    20:00 +18°C° 0 mm 2 mps 742 mmHg 75%
    21:00 +17°C° 0 mm 2 mps 743 mmHg 78%
    22:00 +16°C° 0 mm 2 mps 743 mmHg 81%
    23:00 +15°C° 0 mm 2 mps 743 mmHg 85%

    Tomorrow, 27 April, Saturday

    Time Temperature Precipitation Wind Pressure Humidity
    00:00 +14°C° 0 mm 2 mps 742 mmHg 86%
    01:00 +14°C° 0 mm 1 mps 742 mmHg 88%
    02:00 +13°C° 0 mm 1 mps 742 mmHg 90%
    03:00 +13°C° 0 mm 1 mps 742 mmHg 90%
    04:00 +12°C° 0 mm 1 mps 741 mmHg 91%
    05:00 +12°C° 0 mm 1 mps 741 mmHg 91%
    06:00 +13°C° 0 mm 1 mps 741 mmHg 85%
    07:00 +15°C° 0 mm 1 mps 741 mmHg 80%
    08:00 +16°C° 0 mm 1 mps 741 mmHg 74%
    09:00 +18°C° 0 mm 2 mps 741 mmHg 69%
    10:00 +20°C° 0 mm 2 mps 741 mmHg 64%
    11:00 +22°C° 0 mm 3 mps 741 mmHg 58%
    12:00 +24°C° 0 mm 3 mps 740 mmHg 56%
    13:00 +25°C° 0 mm 4 mps 740 mmHg 53%
    14:00 +26°C° 0 mm 4 mps 739 mmHg 50%
    15:00 +25°C° 0 mm 4 mps 739 mmHg 52%
    16:00 +25°C° 0 mm 4 mps 738 mmHg 54%
    17:00 +25°C° 0 mm 4 mps 738 mmHg 56%
    18:00 +22°C° 0 mm 4 mps 738 mmHg 60%
    19:00 +19°C° 0 mm 3 mps 737 mmHg 65%
    20:00 +17°C° 0 mm 3 mps 737 mmHg 69%
    21:00 +16°C° 0 mm 3 mps 737 mmHg 71%
    22:00 +14°C° 0 mm 3 mps 737 mmHg 72%
    23:00 +15°C° 0 mm 2 mps 737 mmHg 73%

    Day after tomorrow, 28 April, Sunday

    Time Temperature Precipitation Wind Pressure Humidity
    00:00 +14°C° 0 mm 2 mps 737 mmHg 73%
    01:00 +14°C° 0 mm 1 mps 737 mmHg 74%
    02:00 +14°C° 0 mm 1 mps 737 mmHg 75%
    03:00 +13°C° 0.4 mm 1 mps 737 mmHg 79%
    04:00 +12°C° 0.4 mm 1 mps 737 mmHg 84%
    05:00 +12°C° 0.4 mm 1 mps 737 mmHg 88%
    06:00 +13°C° 0 mm 1 mps 737 mmHg 85%
    07:00 +15°C° 0 mm 1 mps 737 mmHg 81%
    08:00 +16°C° 0 mm 1 mps 738 mmHg 78%
    09:00 +18°C° 0.4 mm 1 mps 738 mmHg 75%
    10:00 +20°C° 0.4 mm 1 mps 738 mmHg 71%
    11:00 +21°C° 0.4 mm 1 mps 738 mmHg 68%
    12:00 +21°C° 1.2 mm 1 mps 738 mmHg 66%
    13:00 +22°C° 1.2 mm 1 mps 738 mmHg 64%
    14:00 +22°C° 1.2 mm 1 mps 737 mmHg 61%
    15:00 +22°C° 0.5 mm 1 mps 737 mmHg 60%
    16:00 +22°C° 0.5 mm 1 mps 737 mmHg 59%
    17:00 +22°C° 0.5 mm 1 mps 737 mmHg 57%
    18:00 +20°C° 0.3 mm 1 mps 737 mmHg 64%
    19:00 +18°C° 0.3 mm 1 mps 738 mmHg 70%
    20:00 +15°C° 0.3 mm 1 mps 738 mmHg 77%
    21:00 +14°C° 0 mm 1 mps 738 mmHg 77%
    22:00 +13°C° 0 mm 2 mps 738 mmHg 77%
    23:00 +12°C° 0 mm 2 mps 738 mmHg 78%

    29 April, Monday

    Time Temperature Precipitation Wind Pressure Humidity
    00:00 +12°C° 0 mm 2 mps 738 mmHg 77%
    01:00 +10°C° 0 mm 2 mps 738 mmHg 76%
    02:00 +9°C° 0 mm 2 mps 738 mmHg 75%
    03:00 +9°C° 0 mm 2 mps 738 mmHg 76%
    04:00 +10°C° 0 mm 1 mps 738 mmHg 76%
    05:00 +10°C° 0 mm 1 mps 738 mmHg 77%
    06:00 +11°C° 0 mm 1 mps 739 mmHg 73%
    07:00 +13°C° 0 mm 1 mps 739 mmHg 69%
    08:00 +15°C° 0 mm 1 mps 739 mmHg 65%
    09:00 +16°C° 0 mm 1 mps 739 mmHg 61%
    10:00 +18°C° 0 mm 1 mps 739 mmHg 58%
    11:00 +20°C° 0 mm 1 mps 739 mmHg 54%
    12:00 +20°C° 0.2 mm 1 mps 739 mmHg 54%
    13:00 +20°C° 0.2 mm 1 mps 738 mmHg 54%
    14:00 +21°C° 0.2 mm 1 mps 738 mmHg 55%
    15:00 +21°C° 0.3 mm 1 mps 738 mmHg 56%
    16:00 +21°C° 0.3 mm 1 mps 738 mmHg 58%
    17:00 +21°C° 0.3 mm 1 mps 737 mmHg 60%
    18:00 +19°C° 0.2 mm 1 mps 737 mmHg 66%
    19:00 +16°C° 0.2 mm 1 mps 737 mmHg 72%
    20:00 +14°C° 0.2 mm 1 mps 737 mmHg 78%
    21:00 +14°C° 0 mm 1 mps 737 mmHg 80%
    22:00 +13°C° 0 mm 1 mps 737 mmHg 81%
    23:00 +12°C° 0 mm 1 mps 737 mmHg 83%

    30 April, Tuesday

    Time Temperature Precipitation Wind Pressure Humidity
    00:00 +12°C° 0 mm 1 mps 737 mmHg 83%
    01:00 +12°C° 0 mm 1 mps 737 mmHg 84%
    02:00 +11°C° 0 mm 1 mps 737 mmHg 84%
    03:00 +11°C° 0 mm 1 mps 737 mmHg 84%
    04:00 +11°C° 0 mm 1 mps 737 mmHg 84%
    05:00 +11°C° 0 mm 1 mps 737 mmHg 84%
    06:00 +12°C° 0 mm 1 mps 737 mmHg 79%
    07:00 +13°C° 0 mm 0 mps 737 mmHg 75%
    08:00 +14°C° 0 mm 0 mps 737 mmHg 70%
    09:00 +18°C° 0 mm 1 mps 737 mmHg 65%
    10:00 +19°C° 0 mm 1 mps 737 mmHg 60%
    11:00 +21°C° 0 mm 1 mps 737 mmHg 56%
    12:00 +20°C° 0.2 mm 2 mps 736 mmHg 56%
    13:00 +21°C° 0.2 mm 2 mps 736 mmHg 57%
    14:00 +21°C° 0.2 mm 3 mps 735 mmHg 58%
    15:00 +21°C° 0.9 mm 3 mps 735 mmHg 61%
    16:00 +20°C° 0.9 mm 3 mps 735 mmHg 64%
    17:00 +20°C° 0.9 mm 3 mps 734 mmHg 68%
    18:00 +19°C° 0.5 mm 4 mps 734 mmHg 73%
    19:00 +17°C° 0.5 mm 4 mps 734 mmHg 78%
    20:00 +15°C° 0.5 mm 4 mps 734 mmHg 84%
    21:00 +13°C° 1 mm 3 mps 735 mmHg 86%
    22:00 +12°C° 1 mm 3 mps 735 mmHg 89%
    23:00 +12°C° 1 mm 2 mps 735 mmHg 91%

    1 May, Wednesday

    Time Temperature Precipitation Wind Pressure Humidity
    00:00 +10°C° 0 mm 2 mps 735 mmHg 92%
    01:00 +11°C° 0 mm 1 mps 735 mmHg 92%
    02:00 +10°C° 0 mm 1 mps 735 mmHg 93%
    03:00 +9°C° 0 mm 1 mps 735 mmHg 92%
    04:00 +9°C° 0 mm 1 mps 735 mmHg 92%
    05:00 +9°C° 0 mm 1 mps 735 mmHg 91%
    06:00 +9°C° 0 mm 2 mps 735 mmHg 84%
    07:00 +11°C° 0 mm 3 mps 735 mmHg 77%
    08:00 +13°C° 0 mm 3 mps 735 mmHg 70%
    09:00 +14°C° 0 mm 3 mps 735 mmHg 63%
    10:00 +17°C° 0 mm 3 mps 735 mmHg 57%
    11:00 +19°C° 0 mm 3 mps 735 mmHg 51%
    12:00 +19°C° 0 mm 3 mps 735 mmHg 49%
    13:00 +20°C° 0 mm 2 mps 735 mmHg 46%
    14:00 +21°C° 0 mm 2 mps 735 mmHg 44%
    15:00 +21°C° 0.2 mm 2 mps 735 mmHg 48%
    16:00 +20°C° 0.2 mm 2 mps 734 mmHg 52%
    17:00 +20°C° 0.2 mm 2 mps 734 mmHg 56%
    18:00 +18°C° 0.3 mm 2 mps 734 mmHg 64%
    19:00 +16°C° 0.3 mm 2 mps 735 mmHg 73%
    20:00 +14°C° 0.3 mm 2 mps 735 mmHg 81%
    21:00 +14°C° 0.4 mm 2 mps 735 mmHg 83%
    22:00 +14°C° 0.4 mm 2 mps 735 mmHg 85%
    23:00 +13°C° 0.4 mm 1 mps 735 mmHg 87%
    Show more